Tracking 35275 objects as of 9-Sep-2026
HD Live streaming from Space Station
objects crossing your sky now

SL-6 R/B(2)


SL-6 R/B(2) is no longer on orbit


NORAD ID: 3622
Int'l Code: 1968-115D
Launch date: December 16, 1968
Source: Commonwealth of Independent States (former USSR) (CIS)
Launch site: TYURATAM MISSILE AND SPACE COMPLEX (TTMTR)
Decay date: 1973-09-21

Note: This is a ROCKET BODY
Your satellite tracking list
Your tracking list is empty




NASA's NSSDC Master Catalog

Two Line Element Set (TLE):
1 03622U 68115  D 73264.41345053 -.27713215 +00000-0 +00000-0 0  9990
2 03622 064.6669 310.1961 0407412 249.0681 106.6373 15.68968105039873
Source of the keplerian elements: AFSPC